Weather History for Rolla, MO

Change the Weather History Date:

Friday, January 3, 2014

  Actual Average Record
Temperature  
Mean Temperature 16 °F 31 °F  
Max Temperature 31 °F 40 °F 69 °F (2009)
Min Temperature 1 °F 22 °F -1 °F (1959)
Degree Days  
Heating Degree Days 49 34  
Month to date heating degree days 137 102  
Since 1 July heating degree days 2224 2019  
Cooling Degree Days 0 0  
Month to date cooling degree days 0 0  
Year to date cooling degree days 0 0  
Moisture  
Dew Point 7 °F    
Average Humidity 67    
Maximum Humidity 87    
Minimum Humidity 47    
Precipitation  
Precipitation 0.00 in 0.07 in 1.89 in (1950)
Month to date precipitation T 0.23  
Year to date precipitation T 0.23  
Sea Level Pressure  
Sea Level Pressure 30.28 in    
Wind  
Wind Speed 14 mph (South)    
Max Wind Speed 28 mph    
Max Gust Speed 33 mph    
Visibility 10 miles    
Events      
T = Trace of Precipitation, MM = Missing Value Source: NWS Daily Summary

Daily Weather History Graph

Daily Weather History Graph

Search for Another Location

Airport:

Trip Planner

Search our weather history database for the weather conditions in past years. The results will help you decide how hot, cold, wet, or windy it might be!

Date:

Astronomy

Jan. 03, 2014 Rise Set
Actual Time 7:23 AM CST 4:59 PM CST
Civil Twilight 6:54 AM CST 5:29 PM CST
Nautical Twilight 6:21 AM CST 6:02 PM CST
Astronomical Twilight 5:49 AM CST 6:34 PM CST
Moon 8:52 AM CST (1/3) 8:06 PM CST (1/3)
Length of Visible Light 10h 34m
Length of Day
9h 35m
Waxing Crescent, 8% of the Moon is Illuminated
Jan 3
Waxing Crescent
Jan 7
First Quarter
Jan 15
Full
Jan 23
Last Quarter
Jan 30
New

Hourly Weather History & Observations

Time (CST) Temp. Windchill Dew Point Humidity Pressure Visibility Wind Dir Wind Speed Gust Speed Precip Events Conditions
12:53 AM 3.9 °F - -2.0 °F 76% 30.49 in 10.0 mi Calm Calm - N/A   Clear
1:53 AM 1.9 °F - -2.0 °F 83% 30.49 in 10.0 mi Calm Calm - N/A   Clear
2:53 AM 1.9 °F -5.6 °F -2.0 °F 83% 30.49 in 10.0 mi WSW 3.5 mph - N/A   Clear
3:53 AM 3.0 °F -6.4 °F -2.9 °F 76% 30.48 in 10.0 mi SSW 4.6 mph - N/A   Clear
4:53 AM 3.0 °F -6.4 °F -0.9 °F 84% 30.46 in 10.0 mi SSE 4.6 mph - N/A   Clear
5:53 AM 3.9 °F -6.9 °F -2.0 °F 76% 30.47 in 10.0 mi South 5.8 mph - N/A   Clear
6:53 AM 3.9 °F -8.2 °F -2.0 °F 76% 30.47 in 10.0 mi SSE 6.9 mph - N/A   Clear
7:53 AM 6.1 °F -8.7 °F -0.9 °F 73% 30.46 in 10.0 mi SSE 10.4 mph - N/A   Clear
8:53 AM 10.9 °F -2.6 °F 3.9 °F 73% 30.44 in 10.0 mi SSE 10.4 mph - N/A   Clear
9:53 AM 16.0 °F 1.7 °F 5.0 °F 62% 30.43 in 10.0 mi South 13.8 mph - N/A   Clear
10:53 AM 19.9 °F 6.7 °F 8.1 °F 60% 30.38 in 10.0 mi SSE 13.8 mph - N/A   Clear
11:53 AM 24.1 °F 11.0 °F 10.0 °F 55% 30.32 in 10.0 mi South 16.1 mph - N/A   Clear
12:53 PM 27.0 °F 16.1 °F 12.0 °F 53% 30.26 in 10.0 mi South 12.7 mph - N/A   Clear
1:53 PM 28.9 °F 16.5 °F 12.9 °F 51% 30.23 in 10.0 mi South 18.4 mph - N/A   Clear
2:53 PM 30.9 °F 19.4 °F 14.0 °F 50% 30.18 in 10.0 mi South 17.3 mph 25.3 mph N/A   Clear
3:53 PM 30.9 °F 18.7 °F 12.9 °F 47% 30.17 in 10.0 mi South 19.6 mph - N/A   Clear
4:53 PM 28.0 °F 14.9 °F 12.9 °F 53% 30.14 in 10.0 mi SSE 19.6 mph - N/A   Clear
5:53 PM 26.1 °F 12.3 °F 12.0 °F 55% 30.12 in 10.0 mi SSE 19.6 mph 26.5 mph N/A   Clear
6:53 PM 25.0 °F 10.6 °F 12.9 °F 60% 30.09 in 10.0 mi South 20.7 mph 31.1 mph N/A   Clear
7:54 PM 24.1 °F 9.8 °F 12.9 °F 62% 30.06 in 10.0 mi South 19.6 mph 31.1 mph N/A   Unknown
8:53 PM 24.1 °F 9.4 °F 14.0 °F 65% 30.02 in 10.0 mi South 20.7 mph 28.8 mph N/A   Clear
9:53 PM 24.1 °F 9.4 °F 14.0 °F 65% 30.01 in 10.0 mi South 20.7 mph 27.6 mph N/A   Clear
10:53 PM 25.0 °F 9.9 °F 14.0 °F 63% 30.00 in 10.0 mi South 23.0 mph 29.9 mph N/A   Clear
11:53 PM 25.0 °F 9.9 °F 15.1 °F 66% 29.98 in 10.0 mi South 23.0 mph 28.8 mph N/A   Clear